IBE223 LIMJ-LEBL

Flight info

Callsign IBE223
Flight time N/A
Altitude 29000
Route LAGEN DCT GEKBA DCT VAMTU DCT KOLON DCT GANGU DCT PADKO DCT DIVKO DCT NILDU N975 BISBA
Aircraft A20N/M-SDE2E3FGHIRWXY/LB1

Departure

Time 2026-04-21 18:59
Airport Genoa Cristoforo Colombo Airport (LIMJ)

Arrival

Time N/A
Airport Josep Tarradellas Barcelona-El Prat Airport (LEBL)
Time Latitude Longitude Altitude Speed Heading
2026-04-21 18:35 44.41397 8.85119 13 ft 0 kts 16°
2026-04-21 18:50 44.41392 8.85117 13 ft 4 kts 19°
2026-04-21 18:50 44.41372 8.85099 17 ft 4 kts 66°
2026-04-21 18:50 44.41369 8.85064 13 ft 4 kts 103°
2026-04-21 18:51 44.41370 8.85055 14 ft 0 kts 104°
2026-04-21 18:53 44.41361 8.85083 13 ft 4 kts 133°
2026-04-21 18:54 44.41330 8.85127 13 ft 10 kts 116°
2026-04-21 18:54 44.41294 8.85241 14 ft 12 kts 138°
2026-04-21 18:54 44.41224 8.85280 12 ft 11 kts 178°
2026-04-21 18:54 44.41162 8.85258 12 ft 9 kts 200°
2026-04-21 18:55 44.41119 8.85240 12 ft 10 kts 193°
2026-04-21 18:55 44.41090 8.85229 12 ft 0 kts 198°
2026-04-21 18:56 44.41049 8.85184 10 ft 15 kts 217°
2026-04-21 18:56 44.41005 8.85206 10 ft 9 kts 113°
2026-04-21 18:56 44.40973 8.85333 11 ft 18 kts 106°
2026-04-21 18:57 44.40930 8.85546 12 ft 27 kts 105°
2026-04-21 18:57 44.40887 8.85771 14 ft 22 kts 104°
2026-04-21 18:57 44.40857 8.85925 13 ft 13 kts 99°
2026-04-21 18:57 44.40874 8.86030 14 ft 10 kts 80°
2026-04-21 18:58 44.40844 8.86061 13 ft 6 kts 207°
2026-04-21 18:58 44.40835 8.86021 13 ft 7 kts 271°
2026-04-21 18:58 44.40883 8.85790 14 ft 61 kts 284°
2026-04-21 18:58 44.41070 8.84833 12 ft 140 kts 285°
2026-04-21 18:59 44.41381 8.83311 278 ft 175 kts 286°
2026-04-21 18:59 44.41726 8.81615 807 ft 192 kts 284°
2026-04-21 18:59 44.41550 8.79789 1430 ft 196 kts 237°
2026-04-21 18:59 44.40377 8.78718 1878 ft 223 kts 191°
2026-04-21 19:00 44.38805 8.78983 2716 ft 230 kts 163°
2026-04-21 19:00 44.37430 8.79703 1975 ft 180 kts 138°